Regional Weather Roundup
Issued by NWS

Home | Current Version | Previous Version | Graphics & Text | Print | Product List | Glossary On
Versions: 1 2 3 4 5 6 7 8 9 10 11 12 13 14 15 16 17 18 19 20 21 22 23 24 25 26 27 28 29 30 31 32 33 34 35 36 37 38 39 40 41 42 43 44 45 46 47 48 49 50
000
ASUS43 KOAX 201210
RWRNE

WEATHER ROUNDUP FOR NEBRASKA
NATIONAL WEATHER SERVICE OMAHA NE
600 AM CST TUE FEB 20 2018

NOTES: SATELLITE DATA IS BEING USED TO AUGMENT CLOUD COVER ABOVE
       12000 FEET.
       "FAIR" INDICATES FEW OR NO CLOUDS BELOW 12,000 FEET WITH NO
       SIGNIFICANT WEATHER AND/OR OBSTRUCTIONS TO VISIBILITY.


NEZ001>004-019>022-054>056-201300-
NEBRASKA PANHANDLE

CITY           SKY/WX    TMP DP  RH WIND       PRES   REMARKS
SCOTTSBLUFF    CLEAR     -6 -10  83 NW9       29.96R WCI -23
6HR MIN TEMP:  -8; 6HR MAX TEMP:   1; 6HR PCP: TRACE;

ALLIANCE       PTCLDY    -7 -10  87 NW7       29.94S WCI -21
6HR MIN TEMP:  -7; 6HR MAX TEMP:  -2; 6HR PCP: TRACE;

CHADRON        PTCLDY   -13 -16  86 W3        30.03R
6HR MIN TEMP: -13; 6HR MAX TEMP:   0; 6HR PCP: TRACE;

GORDON         FAIR      -2  -8  74 NW10G16   29.98R WCI -18
6HR MIN TEMP:  -2; 6HR MAX TEMP:   0;

KIMBALL        PTCLDY    -7 -12  77 NW8       29.86R WCI -22
SIDNEY         MOCLDY    -3  -7  82 NW12      29.91R WCI -21
6HR MIN TEMP:  -3; 6HR MAX TEMP:   0; 6HR PCP:  0.01;

$$

NEZ057>060-069>072-079>082-201300-
SOUTHWEST NEBRASKA

CITY           SKY/WX    TMP DP  RH WIND       PRES   REMARKS
NORTH PLATTE   MOCLDY     4  -5  66 NW13      29.99R WCI -13
6HR MIN TEMP:   3; 6HR MAX TEMP:   7; 6HR PCP:  0.06;

IMPERIAL       PTCLDY     3  -4  72 NW18      29.97R WCI -17
6HR MIN TEMP:   2; 6HR MAX TEMP:   7; 6HR PCP:  0.01;

LEXINGTON      MOCLDY     9   2  74 N21G26    29.99R WCI -11
MCCOOK         CLOUDY     8   1  73 NW24      30.00R WCI -13
6HR MIN TEMP:   8; 6HR MAX TEMP:  11; 6HR PCP: TRACE;

OGALLALA       LGT SNOW   4  -2  77 NW14      29.99R WCI -13
$$

NEZ005>010-023>029-035>040-094-201300-
NORTH CENTRAL NEBRASKA

CITY           SKY/WX    TMP DP  RH WIND       PRES   REMARKS
VALENTINE      LGT SNOW   3  -4  72 NW15      30.02R WCI -16
6HR MIN TEMP:   2; 6HR MAX TEMP:   5; 6HR PCP:  0.10;

AINSWORTH      LGT SNOW   2  -2  81 NW18      30.00R WCI -18
BROKEN BOW     FLURRIES   5  -2  72 NW15      29.98R WCI -13
6HR MIN TEMP:   5; 6HR MAX TEMP:  10; 6HR PCP:  0.04;

O`NEILL        FLURRIES   4   1  85 NW12      30.00R WCI -12
ORD            PTCLDY     6  -1  73 NW16G25   29.99R WCI -12
6HR MIN TEMP:   6; 6HR MAX TEMP:  11; 6HR PCP: TRACE;

THEDFORD       CLOUDY     2  -3  79 NW15      29.99R WCI -16
$$

NEZ041-046>049-061>064-073>077-083>087-201300-
SOUTH CENTRAL NEBRASKA

CITY           SKY/WX    TMP DP  RH WIND       PRES   REMARKS
GRAND ISLAND   CLOUDY    10   3  73 NW18G28   29.98R WCI  -8
6HR MIN TEMP:  10; 6HR MAX TEMP:  14; 6HR PCP: TRACE;

AURORA         CLOUDY    12   6  76 NW16      29.97S WCI  -5
HASTINGS       CLOUDY    11   5  77 NW20      29.96S WCI  -7
6HR MIN TEMP:  11; 6HR MAX TEMP:  14; 6HR PCP: TRACE;

HEBRON         LGT SNOW  17  15  91 NW14      29.97F WCI   3
HOLDREGE       CLOUDY     9   4  79 NW14      29.98R WCI  -7
KEARNEY        FLURRIES   8   3  80 NW16G24   29.99R WCI -10
YORK           FLURRIES  14  10  85 N13G18    29.96F WCI   0
$$

NEZ011>018-030>034-042>045-201300-
NORTHEAST NEBRASKA

CITY           SKY/WX    TMP DP  RH WIND       PRES   REMARKS
NORFOLK        CLOUDY     8   3  80 NW20G26   29.96R WCI -11
6HR MIN TEMP:   8; 6HR MAX TEMP:  15; 6HR PCP: TRACE;

ALBION         CLOUDY     9   3  77 NW20      29.98S WCI -10
BLAIR          CLOUDY    19  16  90 NW9       29.93R WCI   7
COLUMBUS       FLURRIES  12   7  80 NW21      29.98R WCI  -7
FREMONT        CLOUDY    17  13  84 NW14      29.99R WCI   3
TEKAMAH        CLOUDY    17  13  84 NW13      29.97R WCI   4
6HR MIN TEMP:  17; 6HR MAX TEMP:  20; 6HR PCP: TRACE;

WAYNE          CLOUDY    11   7  83 NW13G22   29.97R WCI  -4
$$

NEZ050>053-065>068-078-088>093-201300-
SOUTHEAST NEBRASKA

CITY           SKY/WX    TMP DP  RH WIND       PRES   REMARKS
LINCOLN        FLURRIES  18  13  80 NW16      29.98R WCI   3
6HR MIN TEMP:  18; 6HR MAX TEMP:  21; 6HR PCP: TRACE;

OMAHA EPPLEY   FRZ DRZL  21  18  88 NW14      29.95R WCI   8
6HR MIN TEMP:  20; 6HR MAX TEMP:  23; 6HR PCP:  0.06;

BEATRICE       CLOUDY    20  18  91 NW17      29.94F WCI   5
FALLS CITY     CLOUDY    23  21  92 NW14      29.91R WCI  11
6HR MIN TEMP:  23; 6HR MAX TEMP:  27;

NEBRASKA CITY  CLOUDY    22  22 100 NW13      29.92R WCI  10
PLATTSMOUTH    CLOUDY    21  19  94 NW13      29.93R FOG     WCI   8
$$

NEZ044-045-051>053-067-201300-
OMAHA AREA

CITY           SKY/WX    TMP DP  RH WIND       PRES   REMARKS
OMAHA EPPLEY   FRZ DRZL  21  18  88 NW14      29.95R WCI   8
6HR MIN TEMP:  20; 6HR MAX TEMP:  23; 6HR PCP:  0.06;

BLAIR          CLOUDY    19  16  90 NW9       29.93R WCI   7
FREMONT        CLOUDY    17  13  84 NW14      29.99R WCI   3
MILLARD        CLOUDY    21  18  87 NW9G17    29.96R WCI  11
OFFUTT AFB     FRZ DRZL  21  18  89 NW12      29.94R WCI   9
PLATTSMOUTH    CLOUDY    21  19  94 NW13      29.93R FOG     WCI   8
WAHOO          CLOUDY    18  13  80 NW14      29.98R WCI   4
$$




USA.gov is the U.S. government's official web portal to all federal, state and local government web resources and services.